When you browse on this site, cookies collect data to enhance your experience and personalize the content and advertising you see.
Visit our Privacy Policy to learn more. By continuing to use the site, you agree to this use of cookies and data.
  • In Österreich
  • Länderverzeichnis
  • Für 7 Tage
  • Wassertemperatur
  • Wetterkarte
  • News
  • Widgets
  • user-avatar
    Anmelden

    Stündliche Wetter Sesquilé

    Heute, 26 Januar, Sonntag

    Zeit Temperatur Niederschläge Wind Luftdruck Luftfeuchtigkeit
    00:00 +13°C° 0 mm 0 m/S 557 mmHg 96%
    01:00 +13°C° 0 mm 0 m/S 557 mmHg 96%
    02:00 +12°C° 0 mm 0 m/S 557 mmHg 96%
    03:00 +12°C° 0 mm 0 m/S 557 mmHg 95%
    04:00 +12°C° 0 mm 0 m/S 557 mmHg 95%
    05:00 +12°C° 0 mm 0 m/S 557 mmHg 95%
    06:00 +12°C° 0 mm 0 m/S 557 mmHg 94%
    07:00 +12°C° 0 mm 0 m/S 558 mmHg 94%
    08:00 +14°C° 0.1 mm 0 m/S 559 mmHg 88%
    09:00 +16°C° 0.1 mm 1 m/S 560 mmHg 83%
    10:00 +18°C° 0.1 mm 1 m/S 561 mmHg 77%
    11:00 +19°C° 0.2 mm 1 m/S 560 mmHg 74%
    12:00 +20°C° 0.2 mm 1 m/S 560 mmHg 70%
    13:00 +21°C° 0.2 mm 1 m/S 560 mmHg 67%
    14:00 +20°C° 0.6 mm 1 m/S 559 mmHg 73%
    15:00 +19°C° 0.6 mm 1 m/S 558 mmHg 79%
    16:00 +18°C° 0.6 mm 1 m/S 557 mmHg 85%
    17:00 +16°C° 0.5 mm 1 m/S 557 mmHg 88%
    18:00 +15°C° 0.5 mm 1 m/S 557 mmHg 92%
    19:00 +13°C° 0.5 mm 0 m/S 557 mmHg 96%
    20:00 +13°C° 0.2 mm 0 m/S 557 mmHg 96%
    21:00 +13°C° 0.2 mm 0 m/S 558 mmHg 97%
    22:00 +13°C° 0.2 mm 0 m/S 558 mmHg 97%
    23:00 +12°C° 0.4 mm 0 m/S 558 mmHg 97%

    Morgen, 27 Januar, Montag

    Zeit Temperatur Niederschläge Wind Luftdruck Luftfeuchtigkeit
    00:00 +12°C° 0.4 mm 0 m/S 557 mmHg 97%
    01:00 +12°C° 0.4 mm 0 m/S 557 mmHg 97%
    02:00 +12°C° 0.4 mm 0 m/S 557 mmHg 97%
    03:00 +12°C° 0.4 mm 0 m/S 556 mmHg 97%
    04:00 +12°C° 0.4 mm 0 m/S 556 mmHg 97%
    05:00 +12°C° 0.1 mm 0 m/S 556 mmHg 96%
    06:00 +12°C° 0.1 mm 0 m/S 557 mmHg 95%
    07:00 +12°C° 0.1 mm 0 m/S 557 mmHg 95%
    08:00 +13°C° 0.3 mm 0 m/S 558 mmHg 90%
    09:00 +16°C° 0.3 mm 1 m/S 559 mmHg 85%
    10:00 +18°C° 0.3 mm 1 m/S 560 mmHg 80%
    11:00 +19°C° 0.7 mm 1 m/S 560 mmHg 79%
    12:00 +19°C° 0.7 mm 1 m/S 560 mmHg 77%
    13:00 +20°C° 0.7 mm 1 m/S 559 mmHg 76%
    14:00 +19°C° 1 mm 1 m/S 559 mmHg 78%
    15:00 +19°C° 1 mm 1 m/S 558 mmHg 80%
    16:00 +18°C° 1 mm 1 m/S 557 mmHg 82%
    17:00 +16°C° 0.7 mm 1 m/S 557 mmHg 87%
    18:00 +13°C° 0.7 mm 0 m/S 557 mmHg 91%
    19:00 +12°C° 0.7 mm 0 m/S 556 mmHg 96%
    20:00 +12°C° 0.2 mm 0 m/S 557 mmHg 96%
    21:00 +12°C° 0.2 mm 0 m/S 557 mmHg 96%
    22:00 +12°C° 0.2 mm 0 m/S 557 mmHg 96%
    23:00 +11°C° 0.1 mm 0 m/S 557 mmHg 96%

    übermorgen, 28 Januar, Dienstag

    Zeit Temperatur Niederschläge Wind Luftdruck Luftfeuchtigkeit
    00:00 +11°C° 0.1 mm 0 m/S 557 mmHg 96%
    01:00 +11°C° 0.1 mm 0 m/S 556 mmHg 96%
    02:00 +11°C° 0 mm 0 m/S 556 mmHg 96%
    03:00 +11°C° 0 mm 0 m/S 556 mmHg 96%
    04:00 +10°C° 0 mm 0 m/S 555 mmHg 96%
    05:00 +11°C° 0 mm 0 m/S 556 mmHg 96%
    06:00 +11°C° 0 mm 0 m/S 556 mmHg 95%
    07:00 +11°C° 0 mm 0 m/S 557 mmHg 95%
    08:00 +13°C° 0 mm 0 m/S 558 mmHg 86%
    09:00 +16°C° 0 mm 0 m/S 560 mmHg 78%
    10:00 +20°C° 0 mm 1 m/S 561 mmHg 70%
    11:00 +20°C° 0.2 mm 1 m/S 560 mmHg 69%
    12:00 +20°C° 0.2 mm 1 m/S 560 mmHg 68%
    13:00 +19°C° 0.2 mm 2 m/S 559 mmHg 66%
    14:00 +20°C° 0.4 mm 1 m/S 558 mmHg 70%
    15:00 +19°C° 0.4 mm 1 m/S 558 mmHg 73%
    16:00 +19°C° 0.4 mm 1 m/S 557 mmHg 77%
    17:00 +16°C° 0.2 mm 1 m/S 556 mmHg 83%
    18:00 +15°C° 0.2 mm 1 m/S 556 mmHg 89%
    19:00 +12°C° 0.2 mm 0 m/S 555 mmHg 96%
    20:00 +12°C° 0.1 mm 0 m/S 556 mmHg 96%
    21:00 +12°C° 0.1 mm 0 m/S 556 mmHg 96%
    22:00 +12°C° 0.1 mm 0 m/S 556 mmHg 97%
    23:00 +12°C° 0.1 mm 0 m/S 556 mmHg 96%

    29 Januar, Mittwoch

    Zeit Temperatur Niederschläge Wind Luftdruck Luftfeuchtigkeit
    00:00 +12°C° 0.1 mm 0 m/S 556 mmHg 96%
    01:00 +12°C° 0.1 mm 0 m/S 556 mmHg 95%
    02:00 +12°C° 0.1 mm 0 m/S 556 mmHg 95%
    03:00 +11°C° 0.1 mm 0 m/S 556 mmHg 95%
    04:00 +12°C° 0.1 mm 1 m/S 555 mmHg 95%
    05:00 +11°C° 0 mm 0 m/S 556 mmHg 95%
    06:00 +11°C° 0 mm 0 m/S 556 mmHg 94%
    07:00 +11°C° 0 mm 0 m/S 557 mmHg 93%
    08:00 +14°C° 0 mm 0 m/S 558 mmHg 83%
    09:00 +16°C° 0 mm 0 m/S 560 mmHg 74%
    10:00 +19°C° 0 mm 0 m/S 561 mmHg 64%
    11:00 +21°C° 0.3 mm 1 m/S 560 mmHg 64%
    12:00 +21°C° 0.3 mm 1 m/S 560 mmHg 64%
    13:00 +21°C° 0.3 mm 1 m/S 559 mmHg 64%
    14:00 +20°C° 1.1 mm 1 m/S 558 mmHg 70%
    15:00 +19°C° 1.1 mm 1 m/S 557 mmHg 76%
    16:00 +18°C° 1.1 mm 1 m/S 556 mmHg 82%
    17:00 +16°C° 0.7 mm 1 m/S 556 mmHg 87%
    18:00 +14°C° 0.7 mm 0 m/S 556 mmHg 91%
    19:00 +12°C° 0.7 mm 0 m/S 555 mmHg 96%
    20:00 +12°C° 0.1 mm 0 m/S 556 mmHg 96%
    21:00 +12°C° 0.1 mm 0 m/S 556 mmHg 96%
    22:00 +12°C° 0.1 mm 0 m/S 556 mmHg 96%
    23:00 +12°C° 0 mm 0 m/S 556 mmHg 96%

    30 Januar, Donnerstag

    Zeit Temperatur Niederschläge Wind Luftdruck Luftfeuchtigkeit
    00:00 +11°C° 0 mm 0 m/S 555 mmHg 96%
    01:00 +11°C° 0 mm 0 m/S 555 mmHg 96%
    02:00 +11°C° 0 mm 0 m/S 555 mmHg 96%
    03:00 +10°C° 0 mm 0 m/S 555 mmHg 96%
    04:00 +10°C° 0 mm 0 m/S 555 mmHg 96%
    05:00 +10°C° 0 mm 0 m/S 555 mmHg 95%
    06:00 +11°C° 0 mm 0 m/S 556 mmHg 94%
    07:00 +11°C° 0 mm 0 m/S 557 mmHg 93%
    08:00 +13°C° 0.1 mm 0 m/S 558 mmHg 85%
    09:00 +16°C° 0.1 mm 1 m/S 559 mmHg 78%
    10:00 +19°C° 0.1 mm 1 m/S 560 mmHg 71%
    11:00 +20°C° 0.2 mm 1 m/S 560 mmHg 68%
    12:00 +21°C° 0.2 mm 1 m/S 560 mmHg 66%
    13:00 +20°C° 0.2 mm 2 m/S 559 mmHg 63%
    14:00 +20°C° 0.7 mm 2 m/S 558 mmHg 68%
    15:00 +19°C° 0.7 mm 2 m/S 558 mmHg 73%
    16:00 +18°C° 0.7 mm 2 m/S 557 mmHg 78%
    17:00 +16°C° 0.3 mm 2 m/S 556 mmHg 83%
    18:00 +15°C° 0.3 mm 1 m/S 556 mmHg 89%
    19:00 +13°C° 0.3 mm 1 m/S 555 mmHg 95%
    20:00 +12°C° 0 mm 1 m/S 555 mmHg 96%
    21:00 +12°C° 0 mm 1 m/S 555 mmHg 96%
    22:00 +11°C° 0 mm 0 m/S 555 mmHg 96%
    23:00 +10°C° 0 mm 0 m/S 555 mmHg 96%

    31 Januar, Freitag

    Zeit Temperatur Niederschläge Wind Luftdruck Luftfeuchtigkeit
    00:00 +10°C° 0 mm 0 m/S 555 mmHg 96%
    01:00 +9°C° 0 mm 0 m/S 554 mmHg 96%
    02:00 +10°C° 0 mm 1 m/S 554 mmHg 96%
    03:00 +10°C° 0 mm 1 m/S 554 mmHg 96%
    04:00 +10°C° 0 mm 1 m/S 554 mmHg 95%
    05:00 +10°C° 0 mm 1 m/S 554 mmHg 94%
    06:00 +11°C° 0 mm 1 m/S 555 mmHg 93%
    07:00 +11°C° 0 mm 1 m/S 556 mmHg 92%
    08:00 +13°C° 0 mm 1 m/S 557 mmHg 80%
    09:00 +16°C° 0 mm 1 m/S 558 mmHg 67%
    10:00 +18°C° 0 mm 2 m/S 560 mmHg 55%
    11:00 +19°C° 0 mm 2 m/S 560 mmHg 50%
    12:00 +20°C° 0 mm 3 m/S 560 mmHg 45%
    13:00 +21°C° 0 mm 3 m/S 560 mmHg 39%
    14:00 +21°C° 0 mm 3 m/S 559 mmHg 43%
    15:00 +20°C° 0 mm 3 m/S 558 mmHg 47%
    16:00 +19°C° 0 mm 3 m/S 557 mmHg 51%
    17:00 +17°C° 0 mm 2 m/S 557 mmHg 64%
    18:00 +14°C° 0 mm 2 m/S 556 mmHg 77%
    19:00 +12°C° 0 mm 1 m/S 555 mmHg 89%
    20:00 +11°C° 0 mm 1 m/S 555 mmHg 91%
    21:00 +11°C° 0 mm 1 m/S 555 mmHg 93%
    22:00 +11°C° 0 mm 1 m/S 555 mmHg 95%
    23:00 +10°C° 0 mm 1 m/S 555 mmHg 95%
    Mehr zeigen